Location: *
(58.4167°N, 22.5000°E)
Time: 07:27:57
(UTC+00:00)

NOSS 2-1 (C) - Pass Details

Date: 22 September 2019
Orbit: 462 x 1742 km, 63.3° (Epoch: 15 October)

Event Time Altitude Azimuth Distance (km) Brightness Sun altitude
Rises 18:47:36 0° 289° (WNW) 2,690 8.4 -17.8°
Reaches altitude 10° 18:49:37 10° 296° (WNW) 1,897 7.3 -18.1°
Maximum altitude 18:53:43 50° 12° (NNE) 880 4.4 -18.5°
Enters shadow 18:56:45 23° 78° (ENE) 1,612 5.3 -18.8°
